Regional Weather Roundup
Issued by NWS Charleston, SC

Current Version | Previous Version | Text Only | Print | Product List | Glossary Off
Versions: 1 2 3 4 5 6 7 8 9 10 11 12 13 14 15 16 17 18 19 20 21 22 23 24 25 26 27 28 29 30 31 32 33 34 35 36 37 38 39 40 41 42 43 44 45 46 47 48 49 50

000
ASUS42 KCHS 152212
RWRCHS

Regional Weather Roundup
National Weather Service Charleston SC
500 PM EST FRI DEC 15 2017

NOTE: "fair" indicates few or no clouds below 12,000 feet with no
significant weather and/or obstructions to visibility.

Not all stations are quality controlled. Use data with caution,
especially dewpoint observations.

SCZ027-030-031-034>040-042>050-152300-
...Southeast South Carolina...

CITY           SKY/WX    TMP DP  RH WIND       PRES   REMARKS
N Charleston   CLOUDY    57  42  57 W7        29.99R
Waterfront Prk   N/A     58  44  59 VRB3      29.85R
Mount Pleasant FAIR      59  41  51 SW8       30.00R
Johns Island   FAIR      57  45  62 SW3       30.00R
Pinopolis        N/A     55  46  71 SW7       29.89R
Moncks Corner  FAIR      55  37  50 SW6       29.97F
Summerville    FAIR      55  39  54 SW5       29.99F
Beaufort MCAS  CLOUDY    57  44  62 SW7       30.01S
Beaufort Arpt  FAIR      55  43  62 SW7       30.00F
Hilton Head Is MOCLDY    57  43  58 W8        30.02S
Walterboro     CLOUDY    55  36  47 W10       30.00F
Allendale      FAIR      55  37  50 VRB5      30.00R

...Southern Midlands and Pee Dee...

CITY           SKY/WX    TMP DP  RH WIND       PRES   REMARKS
Georgetown     FAIR      55  41  58 SW7       29.98R
Kingstree      FAIR      54  36  50 SW3       29.95S
Orangeburg     CLOUDY    54  37  52 W8        29.98R
Barnwell         N/A     55  39  54 SW9       30.00R
Aiken          FAIR      52  32  46 W12       30.03R
Manning        FAIR     N/A N/A N/A MISG      29.96R
Columbia       CLOUDY    56  36  47 W13       29.96R
Sumter         CLOUDY    56  35  46 W8        29.93R
Florence       CLOUDY    56  36  47 W6        29.95R
Myrtle Beach   CLOUDY    57  41  55 SW5       29.96R
N Myrtle Beach CLOUDY    57  39  51 SW10      29.94R

$$

GAZ063-065-086>088-099>101-113>116-118-119-134>141-150-152300-
...Southeast Georgia...

CITY           SKY/WX    TMP DP  RH WIND       PRES   REMARKS
Savannah Arpt  CLOUDY    57  43  59 SW8       30.03S
Hunter AAF       N/A     57  43  60 SW9       30.01F
Fort Stewart     N/A     56  42  58 W9          N/A
Statesboro     CLOUDY    56  35  45 W6        30.03R
Sylvania       CLOUDY    56  40  55 W5        30.02S
Claxton        FAIR      57  42  57 SW3       30.03F

...CSRA, Central and far Southeast Georgia...

CITY           SKY/WX    TMP DP  RH WIND       PRES   REMARKS
Thomson        CLOUDY    48  28  45 NW13      30.09R
Augusta-Bush   CLOUDY    53  31  42 W20G25    30.03R
Augusta-Daniel CLOUDY    53  31  42 W9        30.03R
Swainsboro     FAIR      54  37  54 W9        30.06R
Vidalia        CLOUDY    54  41  62 W6        30.06R
Eastman        FAIR      53  27  36 W7        30.10S
Hazlehurst     FAIR      55  31  40 W3        30.05S
Alma           CLOUDY    55  42  61 SW7       30.08R
Waycross       CLOUDY    56  40  53 W6        30.09R
Jesup          CLOUDY    57  43  58 CALM      30.07S
Baxley         FAIR      54  39  58 W3        30.06S
Brunswick      CLOUDY    61  37  41 W12G18    30.07R
Saint Simons   CLOUDY    63  40  42 NW9       30.06R

$$

SCZ027-028-034-036>038-045-046-048>050-GAZ119-141-152300-
...Lake and Supplemental Coastal Observations...

STATION/POSITION TIME  TEMP    WIND        PRES    WAVE   SWELL
                       AIR SEA DIR/SP/G            HT/PER HT/PER/DIR
                 (UTC) (F)     (DEG/KT/KT) (MB)    (FT/S) (FT/S/D)
Winyah Bay       NOT AVBL
Lake Murray      2120   56     250/ 12/ 15 1013.5
ACE Basin NERRS  2045   58     230/  3     1016.0
Fort Pulaski     2148   57 53  260/  6/  9 1017.0R
Sapelo Island    2100   62     300/ 10     1017.0

$$

ANZ835-935-AMZ111-154-330-350-352-354-370-450-454-472-152300-
...C-MAN and Buoy Observations...

STATION/POSITION TIME  TEMP    WIND        PRES    WAVE   SWELL
                       AIR SEA DIR/SP/G            HT/PER HT/PER/DIR
                 (UTC) (F)     (DEG/KT/KT) (MB)    (FT/S) (FT/S/D)
Buoy 41004       2150   63 73  260/ 23/ 27 1015.0R   5/ 6
Buoy 41008       2050   60 58  230/  8/ 10 1016.4    1/ 3
Folly Beach CMAN 2100   55     230/  9/ 12 1016.1R
Capers Nearshore 2108   52 55  240/ 14/ 19 1014.8R


STATION/POSITION TIME  TEMP    WIND        PRES    WAVE   SWELL
                       AIR SEA DIR/SP/G            HT/PER HT/PER/DIR
                 (UTC) (F)     (DEG/KT/KT) (MB)    (FT/S) (FT/S/D)
5E St. Marys GA  2130      62                N/A     1/11
Frying Pan Buoy  2150   62 67  260/ 21/ 25 1013.8R   5/ 6
Buoy 41025       2150   63 73  240/ 25/ 31 1011.7R   7/ 6
Cape Lookout NC  2100          240/ 12/ 16 1012.4F
Buoy 41002       2150   72 74  270/ 16/ 19 1014.7R   5/ 7   2/120/11
Buoy 41010       NOT AVBL
St Augustine FL  2200   70 64  300/  4/  5 1017.9R


$$




USA.gov is the U.S. government's official web portal to all federal, state and local government web resources and services.